sat.trackr.live / text

‹ back to catalog

2025-313A

NORAD 67248 · 2025-313A

PAYLOAD ACTIVE UNKNOWN

§ Identity

Operator
Country
TBD
Launch date
2025-12-28
Launch site
VOSTO
Launch vehicle
Mass (kg)
RCS (m²)

External: N2YO · Heavens-Above · Gunter

§ Orbital elements

Epoch: 2026-05-25T03:25:43.459104Z

Period
98.15 min
Inclination
97.5435°
Eccentricity
0.0278847
Mean motion
14.67216872 rev/d
Perigee alt
473.4 km
Apogee alt
866.5 km
Semi-major
7,048.1 km
B*
1.2456e-4
RAAN
211.3000°
Arg perigee
51.0798°
Mean anomaly
311.4914°
Rev number
2,164

§ Raw data

2025-313A1 67248U 25313A   26145.14286411  .00001206  00000+0  12456-3 0  99952 67248  97.5435 211.3000 0278847  51.0798 311.4914 14.67216872 21645

JSON: /api/v1/satellites/67248 · /tle

For live sub-satellite position, see the globe view (requires WebGL).

§ Visibility from observer

Set your observer location to see the next 7 days of passes ≥ 10°. The values pass through the URL so the page stays shareable.

No JS? Fill the form by hand. The geolocation button needs JavaScript.